www.pogodaiklimat.ru

Погода и климат >> Архив погоды >> Мартиника >> Аэропорт Мартиники


ПОГОДА в Аэропорту Мартиники

  • Прогноз погоды в Аэропорту Мартиники
  • Монитор погоды в Аэропорту Мартиники

АРХИВ ПОГОДЫ в Аэропорту Мартиники

Время (UTC), дата Ветер
(напр.,м/с)
 
Видим.   Явления Облачность Т
(С)
Тd
(С)
f
(%)
Тe
(С)
Тes
(С)
Комфортность P
(гПа)
Po
(гПа)
Тmin
(С)
Tmax
(С)
R
(мм)
R24
(мм)
S
(см)
12 12.08 В 5 60 км н/о +28.4 +25.4 84 +42 +42 опасность
перегрева
1015.4 1014.6 +25.5 +32.3 1
15 12.08 В 7 40 км 9/9 600 м
[]
+31.0 +25.1 71 +45 +45 опасность
перегрева
1015.8 1015.0
18 12.08 В 8 50 км н/о +31.2 +25.1 70 +45 +45 опасность
перегрева
1013.8 1013.0 +25.5 +31.7
21 12.08 В 5 35 км 9/9 600 м
[]
+28.7 +25.5 83 +42 +42 опасность
перегрева
1013.1 1012.3
00 13.08 В 6 60 км н/о +27.9 +23.9 79 +39 +39 очень
душно
1014.4 1013.6 +25.5 +31.7 0.2
03 13.08 В 6 50 км 10/10 600 м
[]
+28.1 +24.1 79 +39 +39 очень
душно
1015.9 1015.1
06 13.08 В 3 50 км н/о +26.1 +24.0 88 +36 +36 очень
душно
1014.4 1013.6 +25.5 +31.7 1
09 13.08 В 2 40 км н/о +25.5 +23.0 86 +34 +34 очень
душно
1014.4 1013.6
12 13.08 В 8 40 км н/о +29.1 +22.8 69 +39 +39 очень
душно
1015.8 1015.0 +25.3 +31.7
15 13.08 В 8 28 км н/о +31.4 +24.3 66 +44 +44 опасность
перегрева
1015.9 1015.1
18 13.08 В 8 55 км н/о +31.6 +24.2 65 +44 +44 опасность
перегрева
1014.0 1013.2 +25.3 +31.8
21 13.08 В 7 35 км слаб. дождь 9/9 600 м
[]
+28.9 +24.0 75 +40 +40 очень
душно
1013.7 1012.9
00 14.08 В 4 60 км н/о +27.2 +23.9 82 +37 +37 очень
душно
1015.6 1014.8 +25.3 +31.8 0.0
03 14.08 В 3 60 км н/о +27.1 +24.2 84 +38 +38 очень
душно
1016.8 1016.0
06 14.08 ЮВ 2 55 км н/о +26.1 +24.0 88 +36 +36 очень
душно
1015.5 1014.7 +25.3 +31.8 0.4
09 14.08 В 2 60 км н/о +25.8 +23.5 87 +35 +35 очень
душно
1015.4 1014.6
12 14.08 ЮВ 4 45 км н/о +29.1 +24.7 77 +41 +41 опасность
перегрева
1016.8 1016.0 +25.8 +31.8 0.0
15 14.08 В 8 55 км 9/9 600 м
[]
+30.0 +24.6 73 +43 +43 опасность
перегрева
1017.3 1016.5
18 14.08 В 6 40 км 10/10 600 м
[]
+30.6 +24.7 71 +43 +43 опасность
перегрева
1015.8 1015.0 +25.8 +31.3 0.0
21 14.08 ЮВ 6 60 км н/о +29.7 +25.5 78 +44 +44 опасность
перегрева
1015.1 1014.3
00 15.08 В 6 50 км н/о +28.2 +24.8 82 +40 +40 очень
душно
1016.8 1016.0 +25.8 +31.3 3
03 15.08 В 8 27 км н/о +28.4 +24.0 77 +39 +39 очень
душно
1017.4 1016.6
06 15.08 В 7 22 км 10/10 600 м
[]
+28.1 +24.3 80 +39 +39 очень
душно
1015.6 1014.8 +25.8 +31.3 0.0
09 15.08 В 6 18 км н/о +27.9 +24.9 84 +40 +40 очень
душно
1015.7 1014.9
12 15.08 В 10 23 км н/о +29.3 +25.3 79 +43 +43 опасность
перегрева
1016.8 1016.0 +27.3 +31.3 0.6
15 15.08 В 9 19 км 9/9 600 м
[]
+31.3 +25.9 73 +47 +47 опасность
перегрева
1017.2 1016.4
18 15.08 В 8 26 км 9/9 600 м
[]
+30.8 +24.7 70 +44 +44 опасность
перегрева
1015.9 1015.1 +27.3 +31.8 0.2
21 15.08 В 6 15 км 9/9 600 м
[]
+30.1 +25.4 76 +44 +44 опасность
перегрева
1015.3 1014.5
00 16.08 В 4 19 км 8/8 600 м
[]
+28.4 +24.8 81 +41 +41 опасность
перегрева
1016.7 1015.9 +27.3 +31.8 0.0
03 16.08 В 5 19 км 8/8 600 м
[]
+28.3 +24.7 81 +40 +40 очень
душно
1017.2 1016.4
06 16.08 В 3 16 км 8/8 600 м
[]
+27.5 +24.6 84 +39 +39 очень
душно
1015.2 1014.4 +27.3 +31.8 0.2
09 16.08 В 3 27 км н/о +27.5 +24.1 82 +38 +38 очень
душно
1015.1 1014.3
12 16.08 В 5 30 км н/о +28.9 +24.5 77 +41 +41 опасность
перегрева
1016.3 1015.5 +27.3 +31.8
15 16.08 В 7 50 км н/о +31.0 +25.1 71 +45 +45 опасность
перегрева
1016.6 1015.8
18 16.08 В 7 35 км н/о +30.6 +24.5 70 +43 +43 опасность
перегрева
1015.1 1014.3 +27.3 +31.5 0.2
21 16.08 В 6 40 км 9/9 600 м
[]
+29.6 +24.2 73 +41 +41 опасность
перегрева
1014.4 1013.6
00 17.08 В 4 40 км н/о +27.6 +24.4 83 +39 +39 очень
душно
1015.7 1014.9 +27.3 +31.5 0.2
03 17.08 В 2 45 км н/о +26.1 +24.1 89 +36 +36 очень
душно
1016.0 1015.2
06 17.08 СВ 1 27 км н/о +25.3 +23.9 92 +35 +35 очень
душно
1014.9 1014.1 +25.2 +31.5 0.6
09 17.08 СВ 1 35 км н/о +25.0 +23.8 93 +34 +34 очень
душно
1015.2 1014.4
12 17.08 ЮВ 6 12 км слаб. дождь 8/8 600 м
[]
+27.2 +24.8 87 +39 +39 очень
душно
1016.3 1015.5 +24.8 +31.5 1
15 17.08 ЮВ 5 45 км 8/8 600 м
[]
+28.3 +24.3 79 +40 +42 очень
душно
1016.9 1016.1
18 17.08 Ю 3 45 км 9/9 300 м
[]
+29.5 +24.4 74 +41 +43 опасность
перегрева
1016.2 1015.4 +24.8 +31.3 0.6
21 17.08 В 5 60 км н/о +27.3 +23.1 78 +37 +37 очень
душно
1015.1 1014.3
00 18.08 В 4 60 км н/о +26.8 +24.3 86 +37 +37 очень
душно
1016.1 1015.3 +24.8 +31.3 0.2
03 18.08 В 3 55 км 10/10 600 м
[]
+26.9 +24.4 86 +38 +38 очень
душно
1016.9 1016.1
06 18.08 В 4 60 км 8/8 600 м
[]
+27.0 +23.9 83 +37 +37 очень
душно
1015.7 1014.9 +24.8 +31.3 0.0
09 18.08 В 3 60 км 10/10 600 м
[]
+26.7 +24.0 85 +37 +37 очень
душно
1015.2 1014.4
12 18.08 В 3 45 км сильн. дождь 9/9 600 м
[]
+28.0 +25.4 86 +41 +42 опасность
перегрева
1015.9 1015.1 +26.4 +31.3 2
15 18.08 В 7 60 км н/о +31.0 +25.6 73 +46 +46 опасность
перегрева
1016.2 1015.4
18 18.08 В 6 60 км 8/8 600 м
[]
+30.9 +25.5 73 +45 +47 опасность
перегрева
1015.1 1014.3 +26.4 +32.3 4
21 18.08 В 7 10 км слаб. дождь 8/8 600 м
[]
+28.4 +25.8 86 +42 +42 опасность
перегрева
1014.4 1013.6
00 19.08 В 2 40 км н/о +26.5 +24.9 91 +38 +38 очень
душно
1015.6 1014.8 +26.4 +32.3 2
03 19.08 В 4 50 км н/о +26.6 +25.0 91 +38 +38 очень
душно
1016.5 1015.7
06 19.08 В 2 4200 м дождь 10/10 100 м
[]
+26.4 +25.0 92 +38 +38 очень
душно
1015.2 1014.4 +26.2 +32.3 2
09 19.08 В 1 35 км н/о +25.0 +24.1 95 +34 +34 очень
душно
1014.7 1013.9

 

Местоположение метеостанции Аэропорт Мартиники (Мартиника): широта 14.60 долгота -61.00 высота над уровнем моря 7 м.

В архиве по умолчанию представлена погода в Аэропорту Мартиники за последнюю неделю. Архивные данные за месяц целиком и за предыдущие месяцы, начиная с января 2011 года, Вы можете получить, выбрав интересующий диапазон дат из раскрывающегося списка и нажав кнопку "Ввод!".


*Определитесь, кто Вы:
робот инопланетянин человек

Внимание! Время в таблицах - всемирное. Для получения местного времени необходимо прибавить поправку, которая равна -4 ч.

Смотрите также архив погоды в соседних городах и на ближайших метеорологических станциях:

Погода на Каравелле (Мартиника) (23 км)
Погода в Виги (Сент-Люсия) (66 км)
Погода в Аэропорту Хеванорра (Сент-Люсия) (97 км)
Погода в Дуглас-Шарль аэропорту (Доминика) (108 км)
Погода в Канфилд аэропорту (Доминика) (112 км)
Погода в Арнос Вейл (Сент-Винсент и Гренадины) (165 км)
Погода в Пуэнт-а-Питре (Гваделупа) (197 км)
Погода в Грантли Адамсе (Барбадос) (236 км)
Погода в Сент-Джонсе (Антигуа и Барбуда) (292 км)
Погода в Аэропорту Морис Бишоп (Гренада) (301 км)

Пояснения к столбцам:

Ветер - указаны скорость ветра в м/с - средняя за 10 мин, порывы в срок и между сроками (в фигурных скобках) и направление, откуда дует ветер: С - северный, СВ - северо-восточный, В - восточный, ЮВ - юго-восточный, Ю - южный, ЮЗ - юго-западный, З - западный, СЗ - северо-западный.
Видимость - горизонтальная дальность видимости в метрах или километрах. При видимости от 1 до 10 км при отсутствии осадков обычно наблюдается дымка, при ухудшении видимости до 1 км и менее - туман. В сухую погоду видимость может ухудшаться дымом, пылью или мглою.
Явления - указаны атмосферные явления, наблюдавшиеся в срок или в последний час перед сроком; фигурными скобками обозначены явления, наблюдавшиеся между сроками (за 1-3 часа до срока); квадратными скобками обозначены град или гололедные отложения с указанием их диаметра в мм.
Облачность - указаны через наклонную черту общая и нижняя облачность в баллах и высота нижней границы облаков в метрах; квадратными скобками обозначены формы облаков: Ci - перистые, Cs - перисто-слоистые, Cc - перисто-кучевые, Ac - высококучевые, As - высокослоистые, Sc - слоисто-кучевые, Ns - слоисто-дождевые, Cu - кучевые, Cb - кучево-дождевые. Подробнее классификацию облаков см. в Атласе облаков (PDF).
T - Температура воздуха - температура, измеренная на высоте 2 м над землей.
Td - Температура точки росы - температура, при понижении до которой содержащийся в воздухе водяной пар достигнет насыщения.
f - Относительная влажность воздуха - влажноcть воздуха, измеренная на высоте 2 м над землей.
Te - Эффективная температура - температура, которую ощущает одетый по сезону человек в тени. Характеристика душности погоды. При расчете учитывается влияние влажности воздуха и скорости ветра на теплоощущения человека.
Tes - Эффективная температура на солнце - температура, которую ощущает человек, с поправкой на солнечный нагрев. Характеристика знойности погоды. Зависит от высоты солнца над горизонтом, облачности и скорости ветра. Ночью, в пасмурную погоду, а также при ветре 12 м/с и более поправка равна нулю.
P - Атмосферное давление - приведенное к уровню моря атмосферное давление.
Po - Атмосферное давление - измеренное на уровне метеостанции атмосферное давление.
Tmin - Минимальная температура - минимум температуры воздуха на высоте 2 м над землей.
Tmax - Максимальная температура - максимум температуры воздуха на высоте 2 м над землей.
R - Количество осадков - Количество выпавших осадков за период времени, мм. При наведении курсора мыши на число - период времени, за который выпало указанное количество осадков.
R24 - Количество осадков - Количество выпавших осадков за 24 часа, мм.
S - Снежный покров - Высота снежного покрова, см. При наведении курсора мыши на число - состояние снежного покрова и степень покрытия местности в баллах.